Back to catalog

DELTA 1 DEB

AlivePO
NORAD 21599·DEBRIS·🇺🇸 United States

Launched Jun 12, 1975 from Vandenberg Space Force Base

Loading…

Next Passes (next 24 hours)

TLE

FreshSource: Space-Track

Epoch: Sep 13, 2026, 23:28 UTC

1 21599U 75052HT  26256.97821083  .00000286  00000-0  10576-2 0  9991
2 21599  99.8256 143.5082 0438445 326.0593  44.8152 12.73216790630614

Track DELTA 1 DEB in real time with AllMySat

Download on the App Store